Location: Skalnate Pleso
(49.1889°N, 20.2450°E)
Time: 13:45:34
(UTC+01:00)

Cosmos 494 Rocket - Pass Details

Date: 19 November 2019
Orbit: 742 x 771 km, 74.1° (Epoch: 07 December)

Event Time Altitude Azimuth Distance (km) Brightness Sun altitude
Exits shadow 05:16:21 - 338° (NNW) 2,669 6.5 -15.8°
Reaches altitude 10° 05:17:15 10° 339° (NNW) 2,322 6.2 -15.7°
Maximum altitude 05:22:32 77° 66° (ENE) 793 4.1 -14.8°
Drops below altitude 10° 05:27:44 10° 152° (SSE) 2,291 7.1 -14.0°
Sets 05:30:06 0° 154° (SSE) 3,207 7.8 -13.6°
